| time (UTC) | temp C | wind direction | speed KPH | gust KPH | rain 1hr cm | rain 24hr cm | rain mn cm | humidity % | barometer mb |
| 20260508211706 | 5 | 138 | 8.0 | 9.7 | 0.00 | 0.00 | 0.00 | 66 | 1022.2 |
| 20260508210705 | 5 | 136 | 4.8 | 4.8 | 0.00 | 0.00 | 0.00 | 65 | 1022.2 |
| 20260508205705 | 5 | 141 | 8.0 | 8.0 | 0.00 | 0.00 | 0.00 | 65 | 1022.2 |
| 20260508205204 | 5 | 141 | 8.0 | 8.0 | 0.00 | 0.00 | 0.00 | 64 | 1022.0 |
| 20260508204205 | 6 | 143 | 6.4 | 8.0 | 0.00 | 0.00 | 0.00 | 62 | 1022.0 |
| 20260508203705 | 6 | 146 | 8.0 | 8.0 | 0.00 | 0.00 | 0.00 | 61 | 1022.0 |
| 20260508203206 | 6 | 150 | 8.0 | 8.0 | 0.00 | 0.00 | 0.00 | 61 | 1021.9 |
| 20260508201707 | 6 | 149 | 9.7 | 9.7 | 0.00 | 0.00 | 0.00 | 59 | 1021.9 |
| 20260508201204 | 6 | 143 | 8.0 | 9.7 | 0.00 | 0.00 | 0.00 | 59 | 1021.8 |
| 20260508195705 | 7 | 136 | 8.0 | 8.0 | 0.00 | 0.00 | 0.00 | 57 | 1021.8 |
| 20260508194705 | 8 | 135 | 8.0 | 8.0 | 0.00 | 0.00 | 0.00 | 57 | 1021.8 |
| 20260508193205 | 8 | 143 | 8.0 | 9.7 | 0.00 | 0.00 | 0.00 | 53 | 1021.7 |
| 20260508192705 | 9 | 131 | 6.4 | 9.7 | 0.00 | 0.00 | 0.00 | 51 | 1021.6 |
| 20260508191706 | 10 | 127 | 8.0 | 11.3 | 0.00 | 0.00 | 0.00 | 51 | 1021.4 |
| 20260508184705 | 11 | 126 | 4.8 | 8.0 | 0.00 | 0.00 | 0.00 | 50 | 1021.0 |
| 20260508184206 | 11 | 128 | 8.0 | 11.3 | 0.00 | 0.00 | 0.00 | 49 | 1021.0 |
| 20260508183206 | 11 | 122 | 11.3 | 12.9 | 0.00 | 0.00 | 0.00 | 48 | 1021.0 |
| 20260508182206 | 12 | 124 | 11.3 | 20.9 | 0.00 | 0.00 | 0.00 | 48 | 1020.9 |
| 20260508180704 | 12 | 118 | 14.5 | 22.5 | 0.00 | 0.00 | 0.00 | 47 | 1020.9 |
| 20260508175205 | 13 | 123 | 12.9 | 24.1 | 0.00 | 0.00 | 0.00 | 46 | 1020.9 |
| 20260508173704 | 13 | 110 | 17.7 | 24.1 | 0.00 | 0.00 | 0.00 | 45 | 1020.9 |
| 20260508172705 | 13 | 108 | 17.7 | 25.7 | 0.00 | 0.00 | 0.00 | 45 | 1020.9 |
| 20260508171205 | 13 | 126 | 19.3 | 25.7 | 0.00 | 0.00 | 0.00 | 44 | 1020.7 |
| 20260508170704 | 13 | 120 | 24.1 | 27.4 | 0.00 | 0.00 | 0.00 | 44 | 1020.7 |
| 20260508164205 | 14 | 102 | 20.9 | 29.0 | 0.00 | 0.00 | 0.00 | 42 | 1020.7 |
| 20260508163704 | 14 | 101 | 20.9 | 24.1 | 0.00 | 0.00 | 0.00 | 41 | 1020.7 |
| 20260508161705 | 14 | 110 | 22.5 | 29.0 | 0.00 | 0.00 | 0.00 | 39 | 1020.7 |
| 20260508161204 | 14 | 100 | 25.7 | 33.8 | 0.00 | 0.00 | 0.00 | 39 | 1020.7 |
| 20260508160206 | 14 | 108 | 17.7 | 24.1 | 0.00 | 0.00 | 0.00 | 37 | 1020.8 |
| 20260508155204 | 14 | 107 | 19.3 | 25.7 | 0.00 | 0.00 | 0.00 | 35 | 1020.8 |
| 20260508153204 | 15 | 114 | 25.7 | 32.2 | 0.00 | 0.00 | 0.00 | 34 | 1020.7 |
| 20260508152706 | 15 | 108 | 19.3 | 27.4 | 0.00 | 0.00 | 0.00 | 35 | 1020.7 |
| 20260508152204 | 15 | 123 | 14.5 | 25.7 | 0.00 | 0.00 | 0.00 | 37 | 1020.7 |
| 20260508151704 | 15 | 117 | 16.1 | 25.7 | 0.00 | 0.00 | 0.00 | 39 | 1020.7 |
| 20260508144204 | 15 | 99 | 17.7 | 24.1 | 0.00 | 0.00 | 0.00 | 40 | 1020.8 |
| 20260508143704 | 15 | 103 | 19.3 | 25.7 | 0.00 | 0.00 | 0.00 | 40 | 1020.8 |
| 20260508143204 | 15 | 101 | 24.1 | 33.8 | 0.00 | 0.00 | 0.00 | 39 | 1020.8 |
| 20260508142704 | 15 | 112 | 11.3 | 22.5 | 0.00 | 0.00 | 0.00 | 41 | 1020.9 |
| 20260508141704 | 15 | 106 | 25.7 | 32.2 | 0.00 | 0.00 | 0.00 | 40 | 1020.9 |
| 20260508140704 | 15 | 112 | 20.9 | 29.0 | 0.00 | 0.00 | 0.00 | 40 | 1020.9 |
| 20260508140204 | 15 | 110 | 19.3 | 27.4 | 0.00 | 0.00 | 0.00 | 39 | 1020.9 |
| 20260508135705 | 15 | 102 | 20.9 | 32.2 | 0.00 | 0.00 | 0.00 | 40 | 1020.9 |
| 20260508135204 | 15 | 132 | 14.5 | 24.1 | 0.00 | 0.00 | 0.00 | 39 | 1021.0 |
| 20260508134704 | 15 | 96 | 27.4 | 29.0 | 0.00 | 0.00 | 0.00 | 39 | 1021.0 |
| 20260508131206 | 15 | 116 | 22.5 | 27.4 | 0.00 | 0.00 | 0.00 | 39 | 1021.1 |
| 20260508130204 | 15 | 90 | 9.7 | 20.9 | 0.00 | 0.00 | 0.00 | 39 | 1021.1 |
| 20260508125704 | 15 | 107 | 14.5 | 24.1 | 0.00 | 0.00 | 0.00 | 39 | 1021.2 |
| 20260508125205 | 15 | 97 | 19.3 | 25.7 | 0.00 | 0.00 | 0.00 | 41 | 1021.2 |
| 20260508124704 | 15 | 129 | 19.3 | 27.4 | 0.00 | 0.00 | 0.00 | 40 | 1021.2 |
| 20260508124203 | 15 | 92 | 14.5 | 25.7 | 0.00 | 0.00 | 0.00 | 40 | 1021.2 |
| 20260508122704 | 15 | 84 | 22.5 | 29.0 | 0.00 | 0.00 | 0.00 | 40 | 1021.2 |
| 20260508121705 | 15 | 105 | 16.1 | 27.4 | 0.00 | 0.00 | 0.00 | 40 | 1021.2 |
| 20260508121204 | 15 | 101 | 20.9 | 32.2 | 0.00 | 0.00 | 0.00 | 41 | 1021.2 |
| 20260508120703 | 15 | 84 | 12.9 | 27.4 | 0.00 | 0.00 | 0.00 | 40 | 1021.1 |
| 20260508114706 | 15 | 112 | 29.0 | 38.6 | 0.00 | 0.00 | 0.00 | 40 | 1021.2 |
| 20260508114206 | 15 | 141 | 19.3 | 32.2 | 0.00 | 0.00 | 0.00 | 41 | 1021.1 |
| 20260508112706 | 15 | 102 | 25.7 | 33.8 | 0.00 | 0.00 | 0.00 | 40 | 1021.1 |
| 20260508112205 | 15 | 102 | 24.1 | 29.0 | 0.00 | 0.00 | 0.00 | 40 | 1021.2 |
| 20260508111206 | 15 | 119 | 29.0 | 35.4 | 0.00 | 0.00 | 0.00 | 40 | 1021.2 |
| 20260508105206 | 15 | 132 | 25.7 | 35.4 | 0.00 | 0.00 | 0.00 | 40 | 1021.1 |
| 20260508103706 | 15 | 109 | 30.6 | 35.4 | 0.00 | 0.00 | 0.00 | 37 | 1021.0 |
| 20260508103206 | 15 | 139 | 22.5 | 33.8 | 0.00 | 0.00 | 0.00 | 37 | 1021.0 |
| 20260508102706 | 15 | 108 | 32.2 | 41.8 | 0.00 | 0.00 | 0.00 | 35 | 1021.0 |
| 20260508102206 | 15 | 107 | 22.5 | 37.0 | 0.00 | 0.00 | 0.00 | 38 | 1020.9 |
| 20260508101706 | 15 | 106 | 30.6 | 35.4 | 0.00 | 0.00 | 0.00 | 38 | 1020.9 |
| 20260508100706 | 15 | 112 | 20.9 | 32.2 | 0.00 | 0.00 | 0.00 | 38 | 1020.8 |
| 20260508095706 | 15 | 114 | 29.0 | 37.0 | 0.00 | 0.00 | 0.00 | 37 | 1020.8 |
| 20260508095205 | 15 | 100 | 27.4 | 37.0 | 0.00 | 0.00 | 0.00 | 39 | 1020.9 |
| 20260508094205 | 15 | 103 | 25.7 | 32.2 | 0.00 | 0.00 | 0.00 | 49 | 1020.9 |
| 20260508093206 | 15 | 108 | 22.5 | 32.2 | 0.00 | 0.00 | 0.00 | 54 | 1020.9 |
| 20260508084706 | 14 | 104 | 17.7 | 25.7 | 0.00 | 0.00 | 0.00 | 55 | 1020.8 |
| 20260508084205 | 14 | 109 | 20.9 | 25.7 | 0.00 | 0.00 | 0.00 | 53 | 1020.8 |
| 20260508083706 | 14 | 104 | 20.9 | 27.4 | 0.00 | 0.00 | 0.00 | 54 | 1020.8 |
| 20260508082706 | 14 | 86 | 16.1 | 24.1 | 0.00 | 0.00 | 0.00 | 53 | 1020.7 |
| 20260508081705 | 14 | 92 | 14.5 | 25.7 | 0.00 | 0.00 | 0.00 | 56 | 1020.5 |
| 20260508072705 | 13 | 91 | 16.1 | 22.5 | 0.00 | 0.00 | 0.00 | 60 | 1020.4 |
| 20260508071705 | 13 | 79 | 11.3 | 12.9 | 0.00 | 0.00 | 0.00 | 59 | 1020.4 |
| 20260508071205 | 13 | 88 | 14.5 | 16.1 | 0.00 | 0.00 | 0.00 | 61 | 1020.3 |
| 20260508070705 | 13 | 68 | 6.4 | 16.1 | 0.00 | 0.00 | 0.00 | 64 | 1020.2 |
| 20260508070205 | 13 | 68 | 9.7 | 11.3 | 0.00 | 0.00 | 0.00 | 66 | 1020.2 |
| 20260508065705 | 12 | 41 | 8.0 | 12.9 | 0.00 | 0.00 | 0.00 | 65 | 1020.1 |
| 20260508064705 | 12 | 90 | 14.5 | 16.1 | 0.00 | 0.00 | 0.00 | 65 | 1020.0 |
| 20260508064205 | 12 | 93 | 9.7 | 12.9 | 0.00 | 0.00 | 0.00 | 66 | 1020.0 |
| 20260508063205 | 12 | 85 | 14.5 | 20.9 | 0.00 | 0.00 | 0.00 | 66 | 1019.8 |
| 20260508061705 | 11 | 88 | 6.4 | 9.7 | 0.00 | 0.00 | 0.00 | 69 | 1019.7 |
| 20260508061205 | 11 | 64 | 8.0 | 9.7 | 0.00 | 0.00 | 0.00 | 70 | 1019.7 |
| 20260508060705 | 11 | 59 | 6.4 | 8.0 | 0.00 | 0.00 | 0.00 | 73 | 1019.7 |
| 20260508060206 | 11 | 31 | 4.8 | 8.0 | 0.00 | 0.00 | 0.00 | 74 | 1019.6 |
| 20260508053705 | 8 | 101 | 0.0 | 0.0 | 0.00 | 0.00 | 0.00 | 84 | 1019.4 |
| 20260508052706 | 7 | 131 | 0.0 | 0.0 | 0.00 | 0.00 | 0.00 | 85 | 1019.5 |
| 20260508051205 | 6 | 133 | 0.0 | 0.0 | 0.00 | 0.00 | 0.00 | 84 | 1019.4 |
| 20260508050705 | 6 | 133 | 0.0 | 0.0 | 0.00 | 0.00 | 0.00 | 84 | 1019.4 |
| 20260508050207 | 6 | 133 | 0.0 | 0.0 | 0.00 | 0.00 | 0.00 | 85 | 1019.4 |
| 20260508042205 | 3 | 133 | 0.0 | 0.0 | 0.00 | 0.00 | 0.00 | 88 | 1019.2 |
| 20260508041205 | 2 | 133 | 0.0 | 0.0 | 0.00 | 0.00 | 0.00 | 87 | 1019.1 |
| 20260508040205 | 2 | 133 | 0.0 | 0.0 | 0.00 | 0.00 | 0.00 | 87 | 1019.2 |
| 20260508035706 | 2 | 133 | 0.0 | 0.0 | 0.00 | 0.00 | 0.00 | 87 | 1019.2 |
| 20260508034706 | 2 | 133 | 0.0 | 0.0 | 0.00 | 0.00 | 0.00 | 86 | 1019.1 |
| 20260508033705 | 2 | 133 | 0.0 | 0.0 | 0.00 | 0.00 | 0.00 | 86 | 1019.0 |
| 20260508032705 | 2 | 133 | 0.0 | 0.0 | 0.00 | 0.00 | 0.00 | 86 | 1019.0 |
| 20260508031205 | 2 | 133 | 0.0 | 0.0 | 0.00 | 0.00 | 0.00 | 86 | 1018.9 |
| 20260508030705 | 2 | 133 | 0.0 | 0.0 | 0.00 | 0.00 | 0.00 | 86 | 1018.9 |
| 20260508030205 | 2 | 133 | 0.0 | 0.0 | 0.00 | 0.00 | 0.00 | 86 | 1018.9 |
| 20260508025705 | 2 | 133 | 0.0 | 0.0 | 0.00 | 0.00 | 0.00 | 86 | 1018.9 |
| 20260508025206 | 2 | 133 | 0.0 | 0.0 | 0.00 | 0.00 | 0.00 | 86 | 1018.9 |
| 20260508024705 | 2 | 133 | 0.0 | 0.0 | 0.00 | 0.00 | 0.00 | 86 | 1018.9 |
| 20260508024205 | 2 | 133 | 0.0 | 0.0 | 0.00 | 0.00 | 0.00 | 86 | 1018.8 |
| 20260508023205 | 2 | 133 | 0.0 | 0.0 | 0.00 | 0.00 | 0.00 | 86 | 1018.8 |
| 20260508022705 | 2 | 133 | 0.0 | 0.0 | 0.00 | 0.00 | 0.00 | 86 | 1018.8 |
| 20260508021707 | 2 | 133 | 0.0 | 0.0 | 0.00 | 0.00 | 0.00 | 85 | 1018.7 |
| 20260508021205 | 2 | 133 | 0.0 | 0.0 | 0.00 | 0.00 | 0.00 | 85 | 1018.7 |
| 20260508020205 | 3 | 133 | 0.0 | 0.0 | 0.00 | 0.00 | 0.00 | 85 | 1018.7 |
| 20260508015205 | 3 | 133 | 0.0 | 0.0 | 0.00 | 0.00 | 0.00 | 85 | 1018.6 |
| 20260508013705 | 3 | 133 | 0.0 | 0.0 | 0.00 | 0.00 | 0.00 | 84 | 1018.6 |
| 20260508013205 | 3 | 133 | 0.0 | 1.6 | 0.00 | 0.00 | 0.00 | 84 | 1018.5 |
| 20260508012705 | 3 | 133 | 3.2 | 4.8 | 0.00 | 0.00 | 0.00 | 84 | 1018.5 |
| 20260508012206 | 3 | 133 | 4.8 | 4.8 | 0.00 | 0.00 | 0.00 | 84 | 1018.5 |
| 20260508011705 | 3 | 133 | 6.4 | 4.8 | 0.00 | 0.00 | 0.00 | 83 | 1018.5 |
| 20260508011205 | 3 | 133 | 0.0 | 0.0 | 0.00 | 0.00 | 0.00 | 82 | 1018.5 |
| 20260508005705 | 4 | 133 | 0.0 | 0.0 | 0.00 | 0.00 | 0.00 | 83 | 1018.5 |
| 20260508004705 | 4 | 133 | 3.2 | 4.8 | 0.00 | 0.00 | 0.00 | 83 | 1018.5 |
| 20260508003204 | 5 | 127 | 8.0 | 8.0 | 0.00 | 0.00 | 0.00 | 83 | 1018.3 |
| 20260508002205 | 5 | 122 | 9.7 | 9.7 | 0.00 | 0.00 | 0.00 | 84 | 1018.4 |
| 20260508000705 | 5 | 126 | 8.0 | 9.7 | 0.00 | 0.00 | 0.00 | 84 | 1018.3 |
| 20260507235706 | 5 | 105 | 9.7 | 8.0 | 0.00 | 0.00 | 0.00 | 84 | 1018.3 |
| 20260507235205 | 5 | 105 | 8.0 | 8.0 | 0.00 | 0.00 | 0.00 | 84 | 1018.2 |
| 20260507234705 | 5 | 105 | 8.0 | 9.7 | 0.00 | 0.00 | 0.00 | 84 | 1018.2 |
| 20260507234205 | 5 | 88 | 8.0 | 8.0 | 0.00 | 0.00 | 0.00 | 84 | 1018.2 |
| 20260507233704 | 5 | 81 | 8.0 | 8.0 | 0.00 | 0.00 | 0.00 | 83 | 1018.1 |
| 20260507233205 | 5 | 81 | 8.0 | 8.0 | 0.00 | 0.00 | 0.00 | 83 | 1018.1 |
| 20260507232205 | 5 | 81 | 3.2 | 3.2 | 0.00 | 0.00 | 0.00 | 82 | 1018.2 |
| 20260507225205 | 5 | 83 | 8.0 | 8.0 | 0.00 | 0.00 | 0.00 | 82 | 1018.0 |
| 20260507224205 | 5 | 82 | 8.0 | 8.0 | 0.00 | 0.00 | 0.00 | 82 | 1017.9 |
| 20260507223705 | 5 | 70 | 8.0 | 8.0 | 0.00 | 0.00 | 0.00 | 82 | 1017.9 |
| 20260507222705 | 5 | 67 | 4.8 | 8.0 | 0.00 | 0.00 | 0.00 | 82 | 1017.8 |
| 20260507222204 | 5 | 63 | 4.8 | 4.8 | 0.00 | 0.00 | 0.00 | 82 | 1017.8 |
| 20260507221208 | 5 | 62 | 4.8 | 4.8 | 0.00 | 0.00 | 0.00 | 82 | 1017.6 |
| 20260507220705 | 5 | 62 | 4.8 | 4.8 | 0.00 | 0.00 | 0.00 | 81 | 1017.6 |
| 20260507220205 | 5 | 62 | 4.8 | 4.8 | 0.00 | 0.00 | 0.00 | 81 | 1017.6 |
| 20260507215706 | 5 | 62 | 0.0 | 4.8 | 0.00 | 0.00 | 0.00 | 81 | 1017.6 |
| 20260507214206 | 5 | 62 | 0.0 | 0.0 | 0.00 | 0.00 | 0.00 | 80 | 1017.5 |
| 20260507213704 | 5 | 62 | 0.0 | 0.0 | 0.00 | 0.00 | 0.00 | 80 | 1017.6 |
| 20260507213205 | 5 | 62 | 0.0 | 0.0 | 0.00 | 0.00 | 0.00 | 80 | 1017.5 |
| 20260507212205 | 6 | 62 | 0.0 | 0.0 | 0.00 | 0.00 | 0.00 | 79 | 1017.4 |